Location: Obersdorf
(47.4079°N, 10.2781°E)
Time: 02:53:43
(UTC+01:00)

AO-109 - Pass Details

Date: 01 December 2021
Orbit: 479 x 515 km, 60.7° (Epoch: 24 January)

Event Time Altitude Azimuth Distance (km) Brightness Sun altitude
Exits shadow 06:45:27 12° 317° (NW) 1,558 ? -9.9°
Maximum altitude 06:48:55 82° 44° (NE) 489 ? -9.3°
Drops below altitude 10° 06:52:36 10° 133° (SE) 1,650 ? -8.8°
Sets 06:54:45 0° 134° (SE) 2,528 ? -8.4°
